FW7996 Weather Reports


time (UTC)temp
C
wind
direction
speed
KPH
gust
KPH
rain 1hr
cm
rain 24hr
cm
rain mn
cm
humidity
%
barometer
mb
20260505124025 18 357 4.8 6.4 0.00 0.00 0.00 79 1015.1
20260505123025 17 0 4.8 8.0 0.00 0.00 0.00 81 1015.0
20260505122022 16 3 4.8 6.4 0.00 0.00 0.00 83 1015.1
20260505121113 16 4 6.4 8.0 0.00 0.00 0.00 86 1015.1
20260505120022 15 4 6.4 9.7 0.00 0.00 0.00 87 1015.0
20260505115051 15 6 6.4 8.0 0.00 0.00 0.00 89 1014.8
20260505114023 15 8 8.0 12.9 0.00 0.00 0.00 89 1014.7
20260505113034 15 22 11.3 12.9 0.00 0.00 0.00 90 1014.6
20260505112023 15 24 12.9 14.5 0.00 0.00 0.00 91 1014.5
20260505111033 14 12 8.0 11.3 0.00 0.00 0.00 91 1014.5
20260505102024 15 5 6.4 8.0 0.00 0.00 0.00 85 1014.4
20260505101021 15 9 8.0 9.7 0.00 0.00 0.00 80 1014.4
20260505100024 16 1 8.0 12.9 0.00 0.00 0.00 76 1014.2
20260505095024 18 356 6.4 9.7 0.00 0.00 0.00 72 1014.3
20260505094025 21 251 3.2 11.3 0.00 0.00 0.00 65 1014.2
20260505093022 21 226 8.0 14.5 0.00 0.00 0.00 64 1014.2
20260505092047 21 212 11.3 16.1 0.00 0.00 0.00 62 1014.0
20260505091025 21 230 9.7 14.5 0.00 0.00 0.00 64 1013.9
20260505090050 21 234 9.7 12.9 0.00 0.00 0.00 64 1013.9
20260505085050 21 219 11.3 16.1 0.00 0.00 0.00 63 1013.7
20260505084024 21 217 11.3 16.1 0.00 0.00 0.00 62 1013.6
20260505083022 21 222 9.7 14.5 0.00 0.00 0.00 62 1013.6
20260505082023 21 209 12.9 16.1 0.00 0.00 0.00 64 1013.6
20260505081026 21 213 9.7 14.5 0.00 0.00 0.00 63 1013.6
20260505075023 21 207 11.3 14.5 0.00 0.00 0.00 61 1013.8
20260505074023 21 203 14.5 17.7 0.00 0.00 0.00 62 1013.8
20260505073024 21 197 11.3 16.1 0.00 0.00 0.00 62 1013.8
20260505072024 21 227 6.4 12.9 0.00 0.00 0.00 61 1013.9
20260505071024 21 212 9.7 14.5 0.00 0.00 0.00 61 1014.0
20260505070024 21 219 8.0 12.9 0.00 0.00 0.00 61 1014.1
20260505065049 21 213 12.9 17.7 0.00 0.00 0.00 62 1014.3
20260505064024 21 210 12.9 17.7 0.00 0.00 0.00 60 1014.5
20260505063025 21 207 11.3 14.5 0.00 0.00 0.00 61 1014.7
20260505062024 21 220 11.3 19.3 0.00 0.00 0.00 63 1014.7
20260505061024 21 207 11.3 14.5 0.00 0.00 0.00 63 1014.8
20260505060022 21 225 8.0 14.5 0.00 0.00 0.00 63 1014.9
20260505055022 21 208 12.9 16.1 0.00 0.00 0.00 63 1015.0
20260505054035 21 222 12.9 17.7 0.00 0.00 0.00 63 1015.2
20260505053025 21 204 11.3 14.5 0.00 0.00 0.00 62 1015.3
20260505052022 21 215 12.9 16.1 0.00 0.00 0.00 61 1015.2
20260505051022 21 193 9.7 16.1 0.00 0.00 0.00 64 1015.1
20260505041024 21 253 6.4 9.7 0.00 0.00 0.00 63 1015.5
20260505040024 21 221 8.0 14.5 0.00 0.00 0.00 64 1015.5
20260505035024 21 237 8.0 12.9 0.00 0.00 0.00 64 1015.4
20260505034024 21 212 11.3 14.5 0.00 0.00 0.00 64 1015.3
20260505033023 21 213 11.3 14.5 0.00 0.00 0.00 65 1015.4
20260505032025 21 224 9.7 16.1 0.00 0.00 0.00 65 1015.6
20260505031025 21 208 12.9 16.1 0.00 0.00 0.00 65 1015.5
20260505030120 21 214 11.3 16.1 0.00 0.00 0.00 64 1015.4
20260505025050 21 210 12.9 16.1 0.00 0.00 0.00 63 1015.3
20260505024022 21 199 12.9 17.7 0.00 0.00 0.00 65 1015.3
20260505023022 21 206 12.9 16.1 0.00 0.00 0.00 63 1015.2
20260505022050 21 211 12.9 17.7 0.00 0.00 0.00 65 1015.2
20260505021025 21 209 11.3 16.1 0.00 0.00 0.00 64 1015.2
20260505020022 21 215 9.7 14.5 0.00 0.00 0.00 64 1015.4
20260505015023 21 216 11.3 16.1 0.00 0.00 0.00 64 1015.4
20260505014023 21 210 12.9 17.7 0.00 0.00 0.00 64 1015.4
20260505013026 21 230 8.0 16.1 0.00 0.00 0.00 64 1015.6
20260505012023 21 241 8.0 14.5 0.00 0.00 0.00 65 1015.7
20260505011023 22 207 12.9 16.1 0.00 0.00 0.00 64 1015.5
20260505010023 22 213 14.5 17.7 0.00 0.00 0.00 62 1015.6
20260505005023 22 212 12.9 14.5 0.00 0.00 0.00 62 1015.7
20260505004049 22 209 12.9 16.1 0.00 0.00 0.00 62 1015.6
20260505003049 22 235 9.7 14.5 0.00 0.00 0.00 61 1015.5
20260505002024 22 216 11.3 16.1 0.00 0.00 0.00 60 1015.6
20260505001024 22 193 12.9 17.7 0.00 0.00 0.00 60 1015.7
20260505000024 22 206 11.3 16.1 0.00 0.00 0.00 61 1015.7
20260504235024 22 186 11.3 14.5 0.00 0.00 0.00 60 1015.9
20260504234050 22 216 8.0 12.9 0.00 0.00 0.00 58 1016.0
20260504233050 22 184 9.7 14.5 0.00 0.00 0.00 58 1015.9
20260504232024 22 191 8.0 11.3 0.00 0.00 0.00 57 1015.7
20260504231025 22 177 9.7 14.5 0.00 0.00 0.00 57 1015.7
20260504230022 22 200 11.3 14.5 0.00 0.00 0.00 58 1016.0
20260504225025 22 186 8.0 9.7 0.00 0.00 0.00 58 1016.0
20260504224025 22 181 9.7 14.5 0.00 0.00 0.00 58 1015.9
20260504223022 22 183 9.7 12.9 0.00 0.00 0.00 58 1015.9
20260504222023 22 177 9.7 12.9 0.00 0.00 0.00 58 1016.0
20260504221048 21 193 8.0 12.9 0.00 0.00 0.00 57 1016.1
20260504220026 21 185 9.7 16.1 0.00 0.00 0.00 58 1015.9
20260504215048 21 181 9.7 14.5 0.00 0.00 0.00 56 1016.0
20260504214023 21 178 8.0 12.9 0.00 0.00 0.00 56 1016.0
20260504213059 22 181 9.7 14.5 0.00 0.00 0.00 56 1016.0
20260504212023 21 172 11.3 14.5 0.00 0.00 0.00 56 1016.1
20260504211023 22 173 9.7 14.5 0.00 0.00 0.00 54 1016.2
20260504210034 21 190 9.7 14.5 0.00 0.00 0.00 56 1016.2
20260504205024 21 165 9.7 12.9 0.00 0.00 0.00 54 1016.1
20260504204024 21 151 11.3 14.5 0.00 0.00 0.00 55 1016.3
20260504203024 21 162 6.4 12.9 0.00 0.00 0.00 55 1016.3
20260504202059 21 147 9.7 14.5 0.00 0.00 0.00 55 1016.4
20260504201025 21 143 11.3 16.1 0.00 0.00 0.00 55 1016.4
20260504200024 21 161 9.7 12.9 0.00 0.00 0.00 54 1016.6
20260504195024 21 152 9.7 16.1 0.00 0.00 0.00 54 1016.8
20260504194025 21 144 8.0 12.9 0.00 0.00 0.00 51 1016.9
20260504193025 21 157 6.4 11.3 0.00 0.00 0.00 52 1017.0
20260504192022 21 143 8.0 9.7 0.00 0.00 0.00 52 1017.1
20260504191022 21 141 4.8 9.7 0.00 0.00 0.00 51 1017.2
20260504190025 21 125 6.4 9.7 0.00 0.00 0.00 51 1017.4
20260504185025 21 132 6.4 11.3 0.00 0.00 0.00 51 1017.4
20260504184023 21 140 8.0 14.5 0.00 0.00 0.00 51 1017.5
20260504183023 21 150 4.8 9.7 0.00 0.00 0.00 49 1017.7
20260504182113 21 129 4.8 9.7 0.00 0.00 0.00 48 1017.6
20260504181026 21 121 6.4 8.0 0.00 0.00 0.00 48 1017.8
20260504180034 21 125 8.0 11.3 0.00 0.00 0.00 49 1017.8
20260504175035 21 120 9.7 12.9 0.00 0.00 0.00 49 1017.8
20260504174023 21 103 9.7 14.5 0.00 0.00 0.00 50 1017.9
20260504173023 21 115 8.0 11.3 0.00 0.00 0.00 49 1018.1
20260504172023 21 150 8.0 11.3 0.00 0.00 0.00 53 1018.1
20260504171049 21 153 8.0 11.3 0.00 0.00 0.00 52 1018.2
20260504170114 21 133 9.7 12.9 0.00 0.00 0.00 56 1018.3
20260504151022 20 117 11.3 14.5 0.00 0.03 0.00 58 1018.9
20260504141048 20 116 8.0 11.3 0.00 0.03 0.00 49 1018.9